SS1 Caseres 1 (gravel) (12.50 km)

Stage-

Pos # Driver Time Diff Prev Diff 1st
1. 2 ESTO. TANAK 7:16.7
2. 14 NORM. OSTBERG 7:18.5 +1.8 +1.8
3. 5 BELT. NEUVILLE 7:18.8 +0.3 +2.1
4. 7 GBRK. MEEKE 7:19.4 +0.6 +2.7
5. 1 FRAS. OGIER 7:19.7 +0.3 +3.0
6. 4 NORA. MIKKELSEN 7:19.8 +0.1 +3.1
7. 10 FINJ. LATVALA 7:19.9 +0.1 +3.2
8. 3 GBRE. EVANS 7:21.0 +1.1 +4.3
9. 6 ESPD. SORDO 7:22.0 +1.0 +5.3
10. 11 FINJ. HÄNNINEN 7:24.0 +2.0 +7.3
11. 12 FINE. LAPPI 7:24.3 +0.3 +7.6
12. 32 FINT. SUNINEN 7:29.0 +4.7 +12.3
13. 8 FRAS. LEFEBVRE 7:29.6 +0.6 +12.9
14. 82 FRAE. CAMILI 7:30.2 +0.6 +13.5
15. 83 NORO. VEIBY 7:30.9 +0.7 +14.2
16. 84 FRAP. LOUBET 7:40.9 +10.0 +24.2
17. 31 CZEJ. KOPECKY 7:41.5 +0.6 +24.8
18. 40 JPNH. ARAI 7:44.3 +2.8 +27.6
19. 39 FRAY. BONATO 7:47.2 +2.9 +30.5
20. 33 ROUS. TEMPESTINI 7:48.0 +0.8 +31.3
21. 86 FINM. VATANEN 7:50.4 +2.4 +33.7
22. 9 AREK. AL QASSIMI 7:56.0 +5.6 +39.3
23. 34 MEXB. GUERRA 7:56.4 +0.4 +39.7
24. 37 POLL. PIENIAZEK 7:58.2 +1.8 +41.5
25. 46 GBRR. YATES 8:00.1 +1.9 +43.4
26. 45 TURO. AVCIOGLU 8:00.1 +0.0 +43.4
27. 44 ESPC. GARCIA 8:04.1 +4.0 +47.4
28. 88 CHEJ. TÖDTLI 8:04.4 +0.3 +47.7
29. 20 UKRV. GORBAN 8:06.4 +2.0 +49.7
30. 42 FINJ. NORDGREN 8:09.2 +2.8 +52.5
31. 66 SWED. RADSTRÖM 8:15.3 +6.1 +58.6
32. 62 ESPN. SOLANS 8:16.2 +0.9 +59.5
33. 63 FRAN. CIAMIN 8:16.7 +0.5 +1:00.0
34. 65 FRAT. FOLB 8:16.9 +0.2 +1:00.2
35. 89 ECUM. NAVAS 8:24.8 +7.9 +1:08.1
36. 43 GBRJ. ARMSTRONG 8:27.0 +2.2 +1:10.3
37. 64 DEUJ. TANNERT 8:28.8 +1.8 +1:12.1
38. 61 FRAR. ASTIER 8:34.3 +5.5 +1:17.6
39. 90 ESPJ. SOLANS 8:37.9 +3.6 +1:21.2
40. 21 FRAJ. RAOUX 8:41.0 +3.1 +1:24.3
41. 87 IRLE. BOLAND 8:43.9 +2.9 +1:27.2
42. 93 ESPF. MACIAS 8:49.2 +5.3 +1:32.5
43. 96 SWEM. ANDERSSON 8:52.2 +3.0 +1:35.5
44. 95 ANDM. BESOLI 8:58.0 +5.8 +1:41.3
45. 92 ESPJ. PELAEZ 9:02.3 +4.3 +1:45.6
46. 22 GRCJ. SERDERIDIS 9:07.1 +4.8 +1:50.4
47. 91 ESPJ. FONT 9:07.8 +0.7 +1:51.1
48. 104 ESPR. ROZADA 9:11.5 +3.7 +1:54.8
49. 94 ESPG. SOSA 9:17.0 +5.5 +2:00.3
50. 107 ESPS. FRANCOLI 9:18.1 +1.1 +2:01.4
51. 106 ESPA. VILA 9:18.8 +0.7 +2:02.1
52. 108 ESPJ. SALINAS 9:18.9 +0.1 +2:02.2
53. 111 ANDC. RIBEIRO 9:20.4 +1.5 +2:03.7
54. 105 ESPJ. BASSAS 9:22.6 +2.2 +2:05.9
55. 100 ESPJ. DOMENECH 9:29.2 +6.6 +2:12.5
56. 109 ESPA. SERRATOSA 9:36.4 +7.2 +2:19.7
57. 101 ESPZ. ESTEBAN 9:39.5 +3.1 +2:22.8
58. 97 ITAG. TAVELLI 9:44.3 +4.8 +2:27.6
59. 110 ESPM. PARADELL 9:56.3 +12.0 +2:39.6
60. 103 PRTJ. RAMOS 9:57.9 +1.6 +2:41.2
61. 112 ESPP. SUAREZ 9:59.8 +1.9 +2:43.1
62. 102 DEUR. KUHN 10:04.5 +4.7 +2:47.8
63. 98 FRAJ. GUIBERT 10:14.4 +9.9 +2:57.7
64. 115 ITAC. GIAMPAOLI 10:15.1 +0.7 +2:58.4
65. 99 FRAP. GOMEZ 10:26.4 +11.3 +3:09.7
66. 113 ESPÓ. FREIRE 10:56.4 +30.0 +3:39.7
67. 114 ESPE. SANS 11:26.8 +30.4 +4:10.1
68. 35 GBRG. GREENSMITH 14:29.0 +3:02.2 +7:12.3
69. 41 ITAF. ANDOLFI 14:29.0 +0.0 +7:12.3
70. 38 JPNT. KATSUTA 33:33.4 +19:04.4 +26:16.7

Overall-

Pos # Driver Time Diff Prev Diff 1st
1. 2 ESTO. TANAK 7:16.7
2. 14 NORM. OSTBERG 7:18.5 +1.8 +1.8
3. 5 BELT. NEUVILLE 7:18.8 +0.3 +2.1
4. 7 GBRK. MEEKE 7:19.4 +0.6 +2.7
5. 1 FRAS. OGIER 7:19.7 +0.3 +3.0
6. 4 NORA. MIKKELSEN 7:19.8 +0.1 +3.1
7. 10 FINJ. LATVALA 7:19.9 +0.1 +3.2
8. 3 GBRE. EVANS 7:21.0 +1.1 +4.3
9. 6 ESPD. SORDO 7:22.0 +1.0 +5.3
10. 11 FINJ. HÄNNINEN 7:24.0 +2.0 +7.3
11. 12 FINE. LAPPI 7:24.3 +0.3 +7.6
12. 32 FINT. SUNINEN 7:29.0 +4.7 +12.3
13. 8 FRAS. LEFEBVRE 7:29.6 +0.6 +12.9
14. 82 FRAE. CAMILI 7:30.2 +0.6 +13.5
15. 83 NORO. VEIBY 7:30.9 +0.7 +14.2
16. 84 FRAP. LOUBET 7:40.9 +10.0 +24.2
17. 31 CZEJ. KOPECKY 7:41.5 +0.6 +24.8
18. 40 JPNH. ARAI 7:44.3 +2.8 +27.6
19. 39 FRAY. BONATO 7:47.2 +2.9 +30.5
20. 33 ROUS. TEMPESTINI 7:48.0 +0.8 +31.3
21. 86 FINM. VATANEN 7:50.4 +2.4 +33.7
22. 9 AREK. AL QASSIMI 7:56.0 +5.6 +39.3
23. 34 MEXB. GUERRA 7:56.4 +0.4 +39.7
24. 37 POLL. PIENIAZEK 7:58.2 +1.8 +41.5
25. 45 TURO. AVCIOGLU 8:00.1 +1.9 +43.4
26. 46 GBRR. YATES 8:00.1 +0.0 +43.4
27. 44 ESPC. GARCIA 8:04.1 +4.0 +47.4
28. 88 CHEJ. TÖDTLI 8:04.4 +0.3 +47.7
29. 20 UKRV. GORBAN 8:06.4 +2.0 +49.7
30. 42 FINJ. NORDGREN 8:09.2 +2.8 +52.5
31. 66 SWED. RADSTRÖM 8:15.3 +6.1 +58.6
32. 62 ESPN. SOLANS 8:16.2 +0.9 +59.5
33. 63 FRAN. CIAMIN 8:16.7 +0.5 +1:00.0
34. 65 FRAT. FOLB 8:16.9 +0.2 +1:00.2
35. 89 ECUM. NAVAS 8:24.8 +7.9 +1:08.1
36. 43 GBRJ. ARMSTRONG 8:27.0 +2.2 +1:10.3
37. 64 DEUJ. TANNERT 8:28.8 +1.8 +1:12.1
38. 61 FRAR. ASTIER 8:34.3 +5.5 +1:17.6
39. 90 ESPJ. SOLANS 8:37.9 +3.6 +1:21.2
40. 21 FRAJ. RAOUX 8:41.0 +3.1 +1:24.3
41. 87 IRLE. BOLAND 8:43.9 +2.9 +1:27.2
42. 93 ESPF. MACIAS 8:49.2 +5.3 +1:32.5
43. 96 SWEM. ANDERSSON 8:52.2 +3.0 +1:35.5
44. 95 ANDM. BESOLI 8:58.0 +5.8 +1:41.3
45. 92 ESPJ. PELAEZ 9:02.3 +4.3 +1:45.6
46. 22 GRCJ. SERDERIDIS 9:07.1 +4.8 +1:50.4
47. 91 ESPJ. FONT 9:07.8 +0.7 +1:51.1
48. 104 ESPR. ROZADA 9:11.5 +3.7 +1:54.8
49. 94 ESPG. SOSA 9:17.0 +5.5 +2:00.3
50. 107 ESPS. FRANCOLI 9:18.1 +1.1 +2:01.4
51. 106 ESPA. VILA 9:18.8 +0.7 +2:02.1
52. 108 ESPJ. SALINAS 9:18.9 +0.1 +2:02.2
53. 111 ANDC. RIBEIRO 9:20.4 +1.5 +2:03.7
54. 105 ESPJ. BASSAS 9:22.6 +2.2 +2:05.9
55. 100 ESPJ. DOMENECH 9:29.2 +6.6 +2:12.5
56. 109 ESPA. SERRATOSA 9:36.4 +7.2 +2:19.7
57. 101 ESPZ. ESTEBAN 9:39.5 +3.1 +2:22.8
58. 97 ITAG. TAVELLI 9:44.3 +4.8 +2:27.6
59. 110 ESPM. PARADELL 9:56.3 +12.0 +2:39.6
60. 103 PRTJ. RAMOS 9:57.9 +1.6 +2:41.2
61. 112 ESPP. SUAREZ 9:59.8 +1.9 +2:43.1
62. 102 DEUR. KUHN 10:04.5 +4.7 +2:47.8
63. 98 FRAJ. GUIBERT 10:14.4 +9.9 +2:57.7
64. 115 ITAC. GIAMPAOLI 10:15.1 +0.7 +2:58.4
65. 99 FRAP. GOMEZ 10:26.4 +11.3 +3:09.7
66. 113 ESPÓ. FREIRE 10:56.4 +30.0 +3:39.7
67. 114 ESPE. SANS 11:26.8 +30.4 +4:10.1
68. 35 GBRG. GREENSMITH 14:29.0 +3:02.2 +7:12.3
69. 41 ITAF. ANDOLFI 14:29.0 +0.0 +7:12.3
70. 38 JPNT. KATSUTA 33:33.4 +19:04.4 +26:16.7